Time,TemperatureF,DewpointF,PressureIn,WindDirection,WindDirectionDegrees,WindSpeedMPH,WindSpeedGustMPH,Humidity,HourlyPrecipIn,Conditions,Clouds,dailyrainin,SoftwareType,DateUTC
2013-07-20 00:02:00,71.5,63.9,29.83,SSW,207,0.0,0.0,77,0.00,,CLR,0.00,VWS V14.01,2013-07-20 05:02:00,
2013-07-20 00:07:00,71.3,63.7,29.84,SSW,209,0.0,1.0,77,0.00,,CLR,0.00,VWS V14.01,2013-07-20 05:07:00,
2013-07-20 00:12:00,71.0,63.4,29.84,SSW,209,0.0,1.0,77,0.00,,CLR,0.00,VWS V14.01,2013-07-20 05:12:00,
2013-07-20 00:17:00,70.5,63.7,29.84,SSW,209,0.0,1.0,79,0.00,,CLR,0.00,VWS V14.01,2013-07-20 05:17:00,
2013-07-20 00:22:00,70.0,63.2,29.84,SSW,209,0.0,1.0,79,0.00,,CLR,0.00,VWS V14.01,2013-07-20 05:22:00,
2013-07-20 00:27:00,69.6,63.5,29.84,SSW,209,0.0,1.0,81,0.00,,CLR,0.00,VWS V14.01,2013-07-20 05:27:00,
2013-07-20 00:32:00,69.3,63.2,29.84,SSW,209,0.0,1.0,81,0.00,,CLR,0.00,VWS V14.01,2013-07-20 05:32:00,
2013-07-20 00:37:00,69.2,63.5,29.84,SSW,209,0.0,1.0,82,0.00,,CLR,0.00,VWS V14.01,2013-07-20 05:37:00,
2013-07-20 00:42:00,68.8,63.1,29.84,SSW,209,0.0,1.0,82,0.00,,CLR,0.00,VWS V14.01,2013-07-20 05:42:00,
2013-07-20 00:47:00,68.6,63.2,29.84,SSW,209,0.0,1.0,83,0.00,,CLR,0.00,VWS V14.01,2013-07-20 05:47:00,
2013-07-20 00:52:00,68.6,63.2,29.84,SSW,209,0.0,1.0,83,0.00,,CLR,0.00,VWS V14.01,2013-07-20 05:52:00,
2013-07-20 00:57:00,68.7,63.3,29.84,SSW,209,0.0,1.0,83,0.00,,CLR,0.00,VWS V14.01,2013-07-20 05:57:00,
2013-07-20 01:02:00,68.7,63.3,29.84,SSW,209,0.0,0.0,83,0.00,,CLR,0.00,VWS V14.01,2013-07-20 06:02:00,
2013-07-20 01:07:00,68.6,63.2,29.84,SSW,209,0.0,0.0,83,0.00,,CLR,0.00,VWS V14.01,2013-07-20 06:07:00,
2013-07-20 01:12:00,68.6,63.2,29.84,SSW,209,0.0,0.0,83,0.00,,CLR,0.00,VWS V14.01,2013-07-20 06:12:00,
2013-07-20 01:17:00,68.3,62.9,29.84,SSW,209,0.0,0.0,83,0.00,,CLR,0.00,VWS V14.01,2013-07-20 06:17:00,
2013-07-20 01:22:00,68.2,62.8,29.84,SSW,209,0.0,0.0,83,0.00,,CLR,0.00,VWS V14.01,2013-07-20 06:22:00,
2013-07-20 01:28:00,68.1,62.8,29.84,SSW,209,0.0,0.0,83,0.00,,CLR,0.00,VWS V14.01,2013-07-20 06:28:00,
2013-07-20 01:33:00,67.6,62.3,29.85,SSW,209,0.0,0.0,83,0.00,,CLR,0.00,VWS V14.01,2013-07-20 06:33:00,
2013-07-20 01:38:00,67.3,62.0,29.85,SSW,209,0.0,0.0,83,0.00,,CLR,0.00,VWS V14.01,2013-07-20 06:38:00,
2013-07-20 01:43:00,66.7,62.0,29.85,SSW,209,0.0,0.0,85,0.00,,CLR,0.00,VWS V14.01,2013-07-20 06:43:00,
2013-07-20 01:48:00,66.4,61.4,29.85,SSW,209,0.0,0.0,84,0.00,,CLR,0.00,VWS V14.01,2013-07-20 06:48:00,
2013-07-20 01:53:00,65.6,61.3,29.85,SSW,209,0.0,0.0,86,0.00,,CLR,0.00,VWS V14.01,2013-07-20 06:53:00,
2013-07-20 01:58:00,65.4,61.4,29.85,SSW,209,0.0,0.0,87,0.00,,CLR,0.00,VWS V14.01,2013-07-20 06:58:00,
2013-07-20 02:03:00,65.5,61.5,29.85,SSW,209,0.0,0.0,87,0.00,,CLR,0.00,VWS V14.01,2013-07-20 07:03:00,
2013-07-20 02:08:00,65.6,61.6,29.85,SSW,209,0.0,0.0,87,0.00,,CLR,0.00,VWS V14.01,2013-07-20 07:08:00,
2013-07-20 02:13:00,65.7,62.0,29.85,SSW,209,0.0,0.0,88,0.00,,CLR,0.00,VWS V14.01,2013-07-20 07:13:00,
2013-07-20 02:18:00,65.7,62.0,29.85,SSW,209,0.0,0.0,88,0.00,,CLR,0.00,VWS V14.01,2013-07-20 07:18:00,
2013-07-20 02:23:00,65.1,61.5,29.85,SSW,209,0.0,0.0,88,0.00,,CLR,0.00,VWS V14.01,2013-07-20 07:23:00,
2013-07-20 02:28:00,65.0,61.7,29.84,SSW,209,0.0,0.0,89,0.00,,CLR,0.00,VWS V14.01,2013-07-20 07:28:00,
2013-07-20 02:33:00,65.3,62.0,29.84,SSW,209,0.0,0.0,89,0.00,,CLR,0.00,VWS V14.01,2013-07-20 07:33:00,
2013-07-20 02:38:00,65.0,61.7,29.84,SSW,209,0.0,0.0,89,0.00,,CLR,0.00,VWS V14.01,2013-07-20 07:38:00,
2013-07-20 02:43:00,65.1,62.1,29.84,SSW,209,0.0,0.0,90,0.00,,CLR,0.00,VWS V14.01,2013-07-20 07:43:00,
2013-07-20 02:48:00,64.6,61.6,29.84,SSW,209,0.0,0.0,90,0.00,,CLR,0.00,VWS V14.01,2013-07-20 07:48:00,
2013-07-20 02:53:00,63.9,60.9,29.84,SSW,209,0.0,0.0,90,0.00,,CLR,0.00,VWS V14.01,2013-07-20 07:53:00,
2013-07-20 02:58:00,63.7,60.7,29.84,SSW,209,0.0,0.0,90,0.00,,CLR,0.00,VWS V14.01,2013-07-20 07:58:00,
2013-07-20 03:03:00,63.6,60.9,29.84,SSW,209,0.0,0.0,91,0.00,,CLR,0.00,VWS V14.01,2013-07-20 08:03:00,
2013-07-20 03:08:00,63.2,60.5,29.83,SSW,209,0.0,0.0,91,0.00,,CLR,0.00,VWS V14.01,2013-07-20 08:08:00,
2013-07-20 03:13:00,63.6,61.2,29.83,SSW,209,0.0,0.0,92,0.00,,CLR,0.00,VWS V14.01,2013-07-20 08:13:00,
2013-07-20 03:18:00,63.7,61.0,29.83,SSW,209,0.0,0.0,91,0.00,,CLR,0.00,VWS V14.01,2013-07-20 08:18:00,
2013-07-20 03:23:00,63.1,60.4,29.83,SSW,209,0.0,0.0,91,0.00,,CLR,0.00,VWS V14.01,2013-07-20 08:23:00,
2013-07-20 03:28:00,62.8,60.5,29.84,SSW,209,0.0,0.0,92,0.00,,CLR,0.00,VWS V14.01,2013-07-20 08:28:00,
2013-07-20 03:34:00,62.8,60.5,29.84,SSW,209,0.0,0.0,92,0.00,,CLR,0.00,VWS V14.01,2013-07-20 08:34:00,
2013-07-20 03:39:00,62.7,60.3,29.83,SSW,209,0.0,0.0,92,0.00,,CLR,0.00,VWS V14.01,2013-07-20 08:39:00,
2013-07-20 03:44:00,62.8,60.8,29.83,SSW,209,0.0,0.0,93,0.00,,CLR,0.00,VWS V14.01,2013-07-20 08:44:00,
2013-07-20 03:49:00,63.0,61.0,29.83,SSW,209,0.0,0.0,93,0.00,,CLR,0.00,VWS V14.01,2013-07-20 08:49:00,
2013-07-20 03:54:00,63.2,61.2,29.83,SSW,209,0.0,0.0,93,0.00,,CLR,0.00,VWS V14.01,2013-07-20 08:54:00,
2013-07-20 03:59:00,62.2,59.8,29.83,SSW,209,0.0,0.0,92,0.00,,CLR,0.00,VWS V14.01,2013-07-20 08:59:00,
2013-07-20 04:04:00,62.1,60.4,29.83,SSW,209,0.0,2.0,94,0.00,,CLR,0.00,VWS V14.01,2013-07-20 09:04:00,
2013-07-20 04:09:00,62.0,60.3,29.83,SSW,209,0.0,2.0,94,0.00,,CLR,0.00,VWS V14.01,2013-07-20 09:09:00,
2013-07-20 04:14:00,62.0,60.3,29.84,SSW,209,0.0,2.0,94,0.00,,CLR,0.00,VWS V14.01,2013-07-20 09:14:00,
2013-07-20 04:19:00,62.2,60.8,29.84,SSW,209,0.0,2.0,95,0.00,,CLR,0.00,VWS V14.01,2013-07-20 09:19:00,
2013-07-20 04:24:00,62.3,60.8,29.84,SSW,209,0.0,2.0,95,0.00,,CLR,0.00,VWS V14.01,2013-07-20 09:24:00,
2013-07-20 04:29:00,62.2,60.8,29.84,SSW,209,0.0,2.0,95,0.00,,CLR,0.00,VWS V14.01,2013-07-20 09:29:00,
2013-07-20 04:34:00,61.5,59.8,29.84,SSW,209,0.0,2.0,94,0.00,,CLR,0.00,VWS V14.01,2013-07-20 09:34:00,
2013-07-20 04:39:00,61.6,60.2,29.84,SSW,209,0.0,2.0,95,0.00,,CLR,0.00,VWS V14.01,2013-07-20 09:39:00,
2013-07-20 04:44:00,61.7,60.3,29.84,SSW,209,0.0,2.0,95,0.00,,CLR,0.00,VWS V14.01,2013-07-20 09:44:00,
2013-07-20 04:49:00,61.4,59.7,29.84,SSW,209,0.0,2.0,94,0.00,,CLR,0.00,VWS V14.01,2013-07-20 09:49:00,
2013-07-20 04:54:00,61.3,59.9,29.84,SSW,209,0.0,2.0,95,0.00,,CLR,0.00,VWS V14.01,2013-07-20 09:54:00,
2013-07-20 04:59:00,61.4,60.0,29.84,SSW,209,0.0,2.0,95,0.00,,CLR,0.00,VWS V14.01,2013-07-20 09:59:00,
2013-07-20 05:04:00,61.2,59.8,29.84,SSW,209,0.0,0.0,95,0.00,,CLR,0.00,VWS V14.01,2013-07-20 10:04:00,
2013-07-20 05:09:00,61.3,59.9,29.84,SSW,209,0.0,0.0,95,0.00,,CLR,0.00,VWS V14.01,2013-07-20 10:09:00,
2013-07-20 05:14:00,61.6,60.2,29.84,SSW,209,0.0,0.0,95,0.00,,CLR,0.00,VWS V14.01,2013-07-20 10:14:00,
2013-07-20 05:19:00,60.8,59.1,29.84,SSW,209,0.0,0.0,94,0.00,,CLR,0.00,VWS V14.01,2013-07-20 10:19:00,
2013-07-20 05:24:00,60.6,59.2,29.84,SSW,209,0.0,0.0,95,0.00,,CLR,0.00,VWS V14.01,2013-07-20 10:24:00,
2013-07-20 05:29:00,60.8,59.4,29.84,SSW,209,0.0,0.0,95,0.00,,CLR,0.00,VWS V14.01,2013-07-20 10:29:00,
2013-07-20 05:34:00,60.6,59.2,29.84,SSW,209,0.0,0.0,95,0.00,,CLR,0.00,VWS V14.01,2013-07-20 10:34:00,
2013-07-20 05:40:00,60.4,59.0,29.84,SSW,209,0.0,0.0,95,0.00,,CLR,0.00,VWS V14.01,2013-07-20 10:40:00,
2013-07-20 05:45:00,60.5,59.1,29.84,SSW,209,0.0,0.0,95,0.00,,CLR,0.00,VWS V14.01,2013-07-20 10:45:00,
2013-07-20 05:50:00,60.9,59.8,29.84,SSW,209,0.0,0.0,96,0.00,,CLR,0.00,VWS V14.01,2013-07-20 10:50:00,
2013-07-20 05:55:00,61.0,59.6,29.84,SSW,209,0.0,0.0,95,0.00,,CLR,0.00,VWS V14.01,2013-07-20 10:55:00,
2013-07-20 06:00:00,61.5,60.3,29.84,SSW,209,0.0,0.0,96,0.00,,CLR,0.00,VWS V14.01,2013-07-20 11:00:00,
2013-07-20 06:05:00,61.3,59.9,29.84,SSW,209,0.0,0.0,95,0.00,,CLR,0.00,VWS V14.01,2013-07-20 11:05:00,
2013-07-20 06:10:00,61.0,59.3,29.84,SSW,209,0.0,0.0,94,0.00,,CLR,0.00,VWS V14.01,2013-07-20 11:10:00,
2013-07-20 06:15:00,60.0,58.6,29.84,SSW,209,0.0,0.0,95,0.00,,CLR,0.00,VWS V14.01,2013-07-20 11:15:00,
2013-07-20 06:20:00,59.5,58.1,29.85,SSW,209,0.0,0.0,95,0.00,,CLR,0.00,VWS V14.01,2013-07-20 11:20:00,
2013-07-20 06:25:00,59.8,58.7,29.85,SSW,209,0.0,0.0,96,0.00,,CLR,0.00,VWS V14.01,2013-07-20 11:25:00,
2013-07-20 06:30:00,60.0,58.9,29.85,SSW,209,0.0,0.0,96,0.00,,CLR,0.00,VWS V14.01,2013-07-20 11:30:00,
2013-07-20 06:35:00,59.9,58.8,29.85,SSW,209,0.0,0.0,96,0.00,,CLR,0.00,VWS V14.01,2013-07-20 11:35:00,
2013-07-20 06:40:00,60.3,59.2,29.85,SSW,209,0.0,0.0,96,0.00,,CLR,0.00,VWS V14.01,2013-07-20 11:40:00,
2013-07-20 06:45:00,60.6,59.5,29.85,SSW,209,0.0,0.0,96,0.00,,CLR,0.00,VWS V14.01,2013-07-20 11:45:00,
2013-07-20 06:50:00,60.9,59.8,29.85,SSW,209,0.0,0.0,96,0.00,,CLR,0.00,VWS V14.01,2013-07-20 11:50:00,
2013-07-20 06:55:00,61.6,60.5,29.85,SSW,209,0.0,0.0,96,0.00,,CLR,0.00,VWS V14.01,2013-07-20 11:55:00,
2013-07-20 07:00:00,61.6,60.2,29.85,SSW,209,0.0,0.0,95,0.00,,CLR,0.00,VWS V14.01,2013-07-20 12:00:00,
2013-07-20 07:05:00,61.8,60.7,29.85,SSW,209,0.0,0.0,96,0.00,,CLR,0.00,VWS V14.01,2013-07-20 12:05:00,
2013-07-20 07:10:00,62.0,60.6,29.85,SSW,209,0.0,0.0,95,0.00,,CLR,0.00,VWS V14.01,2013-07-20 12:10:00,
2013-07-20 07:16:00,62.3,60.8,29.86,SSW,209,0.0,0.0,95,0.00,,CLR,0.00,VWS V14.01,2013-07-20 12:16:00,
2013-07-20 07:21:00,62.9,61.5,29.86,SSW,209,0.0,0.0,95,0.00,,CLR,0.00,VWS V14.01,2013-07-20 12:21:00,
2013-07-20 07:26:00,63.5,61.8,29.86,SSW,209,0.0,0.0,94,0.00,,CLR,0.00,VWS V14.01,2013-07-20 12:26:00,
2013-07-20 07:31:00,63.9,62.1,29.86,SSW,209,0.0,0.0,94,0.00,,CLR,0.00,VWS V14.01,2013-07-20 12:31:00,
2013-07-20 07:36:00,64.7,62.9,29.87,SSW,209,0.0,0.0,94,0.00,,CLR,0.00,VWS V14.01,2013-07-20 12:36:00,
2013-07-20 07:41:00,65.7,63.6,29.87,SSW,209,0.0,0.0,93,0.00,,CLR,0.00,VWS V14.01,2013-07-20 12:41:00,
2013-07-20 07:46:00,66.3,63.9,29.87,SSW,209,1.0,1.0,92,0.00,,CLR,0.00,VWS V14.01,2013-07-20 12:46:00,
2013-07-20 07:51:00,67.4,65.0,29.87,SSW,211,0.0,2.0,92,0.00,,CLR,0.00,VWS V14.01,2013-07-20 12:51:00,
2013-07-20 07:56:00,68.5,65.1,29.87,SSW,211,0.0,2.0,89,0.00,,CLR,0.00,VWS V14.01,2013-07-20 12:56:00,
2013-07-20 08:01:00,69.5,65.8,29.87,SSW,211,0.0,0.0,88,0.00,,CLR,0.00,VWS V14.01,2013-07-20 13:01:00,
2013-07-20 08:06:00,70.1,65.7,29.87,SSW,211,0.0,1.0,86,0.00,,CLR,0.00,VWS V14.01,2013-07-20 13:06:00,
2013-07-20 08:11:00,70.9,65.8,29.87,SSW,211,0.0,1.0,84,0.00,,CLR,0.00,VWS V14.01,2013-07-20 13:11:00,
2013-07-20 08:16:00,71.9,66.5,29.87,SSW,211,0.0,2.0,83,0.00,,CLR,0.00,VWS V14.01,2013-07-20 13:16:00,
2013-07-20 08:21:00,72.7,66.2,29.88,SSW,211,0.0,2.0,80,0.00,,CLR,0.00,VWS V14.01,2013-07-20 13:21:00,
2013-07-20 08:26:00,72.5,66.0,29.88,SSW,211,0.0,2.0,80,0.00,,CLR,0.00,VWS V14.01,2013-07-20 13:26:00,
2013-07-20 08:31:00,73.3,66.8,29.88,SSW,211,1.0,2.0,80,0.00,,CLR,0.00,VWS V14.01,2013-07-20 13:31:00,
2013-07-20 08:36:00,73.9,67.0,29.88,East,85,0.0,2.0,79,0.00,,CLR,0.00,VWS V14.01,2013-07-20 13:36:00,
2013-07-20 08:41:00,74.4,66.7,29.88,NNE,32,1.0,2.0,77,0.00,,CLR,0.00,VWS V14.01,2013-07-20 13:41:00,
2013-07-20 08:46:00,74.8,67.1,29.88,NNE,32,1.0,2.0,77,0.00,,CLR,0.00,VWS V14.01,2013-07-20 13:46:00,
2013-07-20 08:51:00,76.1,68.0,29.88,NNE,20,0.0,2.0,76,0.00,,CLR,0.00,VWS V14.01,2013-07-20 13:51:00,
2013-07-20 08:56:00,76.7,67.4,29.88,NNW,346,0.0,2.0,73,0.00,,CLR,0.00,VWS V14.01,2013-07-20 13:56:00,
2013-07-20 09:01:00,77.2,67.1,29.88,NNW,343,2.0,2.0,71,0.00,,CLR,0.00,VWS V14.01,2013-07-20 14:01:00,
2013-07-20 09:06:00,77.3,66.3,29.88,NNW,330,1.0,4.0,69,0.00,,CLR,0.00,VWS V14.01,2013-07-20 14:06:00,
2013-07-20 09:11:00,77.7,66.7,29.88,WNW,303,1.0,4.0,69,0.00,,CLR,0.00,VWS V14.01,2013-07-20 14:11:00,
2013-07-20 09:16:00,78.2,67.2,29.88,NNW,337,1.0,4.0,69,0.00,,CLR,0.00,VWS V14.01,2013-07-20 14:16:00,
2013-07-20 09:21:00,79.3,67.0,29.89,NNW,338,0.0,4.0,66,0.00,,CLR,0.00,VWS V14.01,2013-07-20 14:21:00,
2013-07-20 09:26:00,79.5,66.7,29.88,NNW,328,3.0,4.0,65,0.00,,CLR,0.00,VWS V14.01,2013-07-20 14:26:00,
2013-07-20 09:31:00,79.7,66.9,29.89,NW,326,2.0,4.0,65,0.00,,CLR,0.00,VWS V14.01,2013-07-20 14:31:00,
2013-07-20 09:36:00,80.3,67.5,29.89,NW,325,2.0,4.0,65,0.00,,CLR,0.00,VWS V14.01,2013-07-20 14:36:00,
2013-07-20 09:42:00,81.6,68.7,29.89,NNW,332,0.0,4.0,65,0.00,,CLR,0.00,VWS V14.01,2013-07-20 14:42:00,
2013-07-20 09:47:00,81.5,67.2,29.89,NNW,327,0.0,4.0,62,0.00,,CLR,0.00,VWS V14.01,2013-07-20 14:47:00,
2013-07-20 09:52:00,82.0,66.8,29.88,NW,322,1.0,4.0,60,0.00,,CLR,0.00,VWS V14.01,2013-07-20 14:52:00,
2013-07-20 09:57:00,82.3,68.0,29.89,NW,323,1.0,5.0,62,0.00,,CLR,0.00,VWS V14.01,2013-07-20 14:57:00,
2013-07-20 10:02:00,82.5,67.7,29.89,NW,325,1.0,3.0,61,0.00,,CLR,0.00,VWS V14.01,2013-07-20 15:02:00,
2013-07-20 10:07:00,83.0,67.2,29.89,NW,315,3.0,4.0,59,0.00,,CLR,0.00,VWS V14.01,2013-07-20 15:07:00,
2013-07-20 10:12:00,83.0,66.7,29.89,NNW,327,2.0,5.0,58,0.00,,CLR,0.00,VWS V14.01,2013-07-20 15:12:00,
2013-07-20 10:17:00,83.4,67.6,29.89,ENE,68,4.0,5.0,59,0.00,,CLR,0.00,VWS V14.01,2013-07-20 15:17:00,
2013-07-20 10:22:00,82.9,67.1,29.89,NNW,336,1.0,5.0,59,0.00,,CLR,0.00,VWS V14.01,2013-07-20 15:22:00,
2013-07-20 10:27:00,83.4,66.6,29.89,NNW,333,0.0,5.0,57,0.00,,CLR,0.00,VWS V14.01,2013-07-20 15:27:00,
2013-07-20 10:32:00,84.5,67.1,29.89,NW,326,1.0,5.0,56,0.00,,CLR,0.00,VWS V14.01,2013-07-20 15:32:00,
2013-07-20 10:37:00,83.6,66.8,29.89,North,355,0.0,5.0,57,0.00,,CLR,0.00,VWS V14.01,2013-07-20 15:37:00,
2013-07-20 10:42:00,83.9,67.6,29.89,North,355,0.0,5.0,58,0.00,,CLR,0.00,VWS V14.01,2013-07-20 15:42:00,
2013-07-20 10:47:00,84.1,67.2,29.89,NNW,327,2.0,5.0,57,0.00,,CLR,0.00,VWS V14.01,2013-07-20 15:47:00,
2013-07-20 10:52:00,83.9,66.5,29.89,NNW,338,1.0,5.0,56,0.00,,CLR,0.00,VWS V14.01,2013-07-20 15:52:00,
2013-07-20 10:57:00,84.3,65.9,29.89,NNW,335,0.0,5.0,54,0.00,,CLR,0.00,VWS V14.01,2013-07-20 15:57:00,
2013-07-20 11:02:00,84.1,67.2,29.89,NNW,332,0.0,1.0,57,0.00,,CLR,0.00,VWS V14.01,2013-07-20 16:02:00,
2013-07-20 11:07:00,85.1,66.6,29.89,NNW,332,1.0,2.0,54,0.00,,CLR,0.00,VWS V14.01,2013-07-20 16:07:00,
2013-07-20 11:12:00,84.5,65.5,29.89,NNW,333,1.0,4.0,53,0.00,,CLR,0.00,VWS V14.01,2013-07-20 16:12:00,
2013-07-20 11:17:00,85.6,67.1,29.88,NE,36,0.0,4.0,54,0.00,,CLR,0.00,VWS V14.01,2013-07-20 16:17:00,
2013-07-20 11:22:00,85.0,65.4,29.88,SE,127,2.0,5.0,52,0.00,,CLR,0.00,VWS V14.01,2013-07-20 16:22:00,
2013-07-20 11:27:00,84.4,66.5,29.87,SE,135,1.0,5.0,55,0.00,,CLR,0.00,VWS V14.01,2013-07-20 16:27:00,
2013-07-20 11:32:00,84.2,66.3,29.87,ESE,105,1.0,5.0,55,0.00,,CLR,0.00,VWS V14.01,2013-07-20 16:32:00,
2013-07-20 11:37:00,83.9,66.0,29.88,SE,126,1.0,5.0,55,0.00,,CLR,0.00,VWS V14.01,2013-07-20 16:37:00,
2013-07-20 11:42:00,84.7,66.8,29.88,ESE,122,2.0,5.0,55,0.00,,CLR,0.00,VWS V14.01,2013-07-20 16:42:00,
2013-07-20 11:48:00,84.9,65.9,29.87,ESE,110,0.0,5.0,53,0.00,,CLR,0.00,VWS V14.01,2013-07-20 16:48:00,
2013-07-20 11:53:00,85.2,66.2,29.88,ESE,109,3.0,5.0,53,0.00,,CLR,0.00,VWS V14.01,2013-07-20 16:53:00,
2013-07-20 11:58:00,85.8,67.8,29.88,North,355,1.0,5.0,55,0.00,,CLR,0.00,VWS V14.01,2013-07-20 16:58:00,
2013-07-20 12:03:00,87.6,67.2,29.88,NNW,341,0.0,2.0,51,0.00,,CLR,0.00,VWS V14.01,2013-07-20 17:03:00,
2013-07-20 12:08:00,85.7,63.8,29.88,NNE,26,0.0,2.0,48,0.00,,CLR,0.00,VWS V14.01,2013-07-20 17:08:00,
2013-07-20 12:13:00,86.9,67.2,29.88,West,261,5.0,5.0,52,0.00,,CLR,0.00,VWS V14.01,2013-07-20 17:13:00,
2013-07-20 12:18:00,85.9,64.5,29.88,WSW,254,0.0,6.0,49,0.00,,CLR,0.00,VWS V14.01,2013-07-20 17:18:00,
2013-07-20 12:23:00,87.0,66.7,29.89,NNW,337,0.0,6.0,51,0.00,,CLR,0.00,VWS V14.01,2013-07-20 17:23:00,
2013-07-20 12:28:00,85.9,65.1,29.88,ESE,109,1.0,6.0,50,0.00,,CLR,0.00,VWS V14.01,2013-07-20 17:28:00,
2013-07-20 12:33:00,86.1,65.3,29.88,SW,222,2.0,6.0,50,0.00,,CLR,0.00,VWS V14.01,2013-07-20 17:33:00,
2013-07-20 12:38:00,84.7,65.7,29.88,SSW,207,2.0,6.0,53,0.00,,CLR,0.00,VWS V14.01,2013-07-20 17:38:00,
2013-07-20 12:43:00,83.9,65.5,29.88,West,262,2.0,6.0,54,0.00,,CLR,0.00,VWS V14.01,2013-07-20 17:43:00,
2013-07-20 12:48:00,83.3,66.5,29.88,West,265,4.0,7.0,57,0.00,,CLR,0.00,VWS V14.01,2013-07-20 17:48:00,
2013-07-20 12:53:00,83.4,65.6,29.88,West,266,5.0,7.0,55,0.00,,CLR,0.00,VWS V14.01,2013-07-20 17:53:00,
2013-07-20 12:58:00,85.5,67.0,29.88,NW,304,0.0,7.0,54,0.00,,CLR,0.00,VWS V14.01,2013-07-20 17:58:00,
2013-07-20 13:03:00,84.3,65.9,29.88,South,171,1.0,3.0,54,0.00,,SCT049,0.00,VWS V14.01,2013-07-20 18:03:00,
2013-07-20 13:08:00,85.7,67.7,29.88,South,175,1.0,3.0,55,0.00,,SCT049,0.00,VWS V14.01,2013-07-20 18:08:00,
2013-07-20 13:13:00,84.3,64.2,29.87,West,266,0.0,5.0,51,0.00,,SCT049,0.00,VWS V14.01,2013-07-20 18:13:00,
2013-07-20 13:18:00,84.9,66.4,29.87,WSW,248,2.0,5.0,54,0.00,,SCT049,0.00,VWS V14.01,2013-07-20 18:18:00,
2013-07-20 13:23:00,85.8,65.6,29.87,NNW,336,2.0,5.0,51,0.00,,SCT049,0.00,VWS V14.01,2013-07-20 18:23:00,
2013-07-20 13:28:00,86.5,65.1,29.86,West,259,2.0,5.0,49,0.00,,SCT049,0.00,VWS V14.01,2013-07-20 18:28:00,
2013-07-20 13:33:00,86.5,64.5,29.86,WNW,297,2.0,5.0,48,0.00,,SCT049,0.00,VWS V14.01,2013-07-20 18:33:00,
2013-07-20 13:38:00,86.2,65.4,29.86,SW,220,0.0,7.0,50,0.00,,SCT049,0.00,VWS V14.01,2013-07-20 18:38:00,
2013-07-20 13:43:00,86.2,64.2,29.86,SSW,202,0.0,7.0,48,0.00,,SCT049,0.00,VWS V14.01,2013-07-20 18:43:00,
2013-07-20 13:49:00,87.0,65.0,29.86,SSW,212,2.0,7.0,48,0.00,,SCT049,0.00,VWS V14.01,2013-07-20 18:49:00,
2013-07-20 13:54:00,87.0,64.3,29.86,NW,307,1.0,7.0,47,0.00,,SCT049,0.00,VWS V14.01,2013-07-20 18:54:00,
2013-07-20 13:59:00,86.2,64.8,29.86,SW,235,3.0,7.0,49,0.00,,SCT049,0.00,VWS V14.01,2013-07-20 18:59:00,
2013-07-20 14:04:00,85.4,65.8,29.86,SW,232,3.0,4.0,52,0.00,,SCT060,0.00,VWS V14.01,2013-07-20 19:04:00,
2013-07-20 14:09:00,85.9,65.1,29.86,SW,215,0.0,7.0,50,0.00,,SCT060,0.00,VWS V14.01,2013-07-20 19:09:00,
2013-07-20 14:15:00,85.9,65.1,29.86,WSW,257,2.0,7.0,50,0.00,,SCT060,0.00,VWS V14.01,2013-07-20 19:15:00,
2013-07-20 14:20:00,85.6,64.8,29.86,SSW,203,3.0,7.0,50,0.00,,SCT060,0.00,VWS V14.01,2013-07-20 19:20:00,
2013-07-20 14:25:00,85.0,64.3,29.85,SSE,168,2.0,7.0,50,0.00,,SCT060,0.00,VWS V14.01,2013-07-20 19:25:00,
2013-07-20 14:30:00,85.7,64.9,29.86,SSW,209,1.0,7.0,50,0.00,,SCT060,0.00,VWS V14.01,2013-07-20 19:30:00,
2013-07-20 14:35:00,86.6,67.4,29.85,ESE,109,2.0,7.0,53,0.00,,SCT060,0.00,VWS V14.01,2013-07-20 19:35:00,
2013-07-20 14:40:00,86.9,65.5,29.85,South,187,1.0,7.0,49,0.00,,SCT060,0.00,VWS V14.01,2013-07-20 19:40:00,
2013-07-20 14:45:00,86.8,65.4,29.85,SSW,209,1.0,7.0,49,0.00,,SCT060,0.00,VWS V14.01,2013-07-20 19:45:00,
2013-07-20 14:50:00,87.4,65.3,29.85,WSW,257,3.0,7.0,48,0.00,,SCT060,0.00,VWS V14.01,2013-07-20 19:50:00,
2013-07-20 14:55:00,86.7,65.9,29.85,SW,220,2.0,7.0,50,0.00,,SCT060,0.00,VWS V14.01,2013-07-20 19:55:00,
2013-07-20 15:00:00,86.9,65.5,29.85,SW,232,4.0,5.0,49,0.00,,SCT060,0.00,VWS V14.01,2013-07-20 20:00:00,
2013-07-20 15:05:00,85.8,65.6,29.85,SW,233,3.0,7.0,51,0.00,,SCT060,0.00,VWS V14.01,2013-07-20 20:05:00,
2013-07-20 15:10:00,86.3,64.3,29.85,West,259,0.0,7.0,48,0.00,,SCT060,0.00,VWS V14.01,2013-07-20 20:10:00,
2013-07-20 15:16:00,86.5,65.1,29.85,West,266,5.0,7.0,49,0.00,,SCT060,0.00,VWS V14.01,2013-07-20 20:16:00,
2013-07-20 15:21:00,85.6,64.8,29.85,SSW,210,6.0,7.0,50,0.00,,SCT060,0.00,VWS V14.01,2013-07-20 20:21:00,
2013-07-20 15:26:00,86.0,65.2,29.85,SE,131,1.0,8.0,50,0.00,,SCT060,0.00,VWS V14.01,2013-07-20 20:26:00,
2013-07-20 15:31:00,87.2,65.1,29.85,WSW,248,4.0,8.0,48,0.00,,SCT060,0.00,VWS V14.01,2013-07-20 20:31:00,
2013-07-20 15:36:00,85.7,63.8,29.85,SSW,197,6.0,9.0,48,0.00,,SCT060,0.00,VWS V14.01,2013-07-20 20:36:00,
2013-07-20 15:41:00,85.9,64.5,29.85,South,182,0.0,9.0,49,0.00,,SCT060,0.00,VWS V14.01,2013-07-20 20:41:00,
2013-07-20 15:46:00,86.3,64.9,29.85,SSW,212,3.0,9.0,49,0.00,,SCT060,0.00,VWS V14.01,2013-07-20 20:46:00,
2013-07-20 15:51:00,86.0,64.6,29.85,SW,225,2.0,9.0,49,0.00,,SCT060,0.00,VWS V14.01,2013-07-20 20:51:00,
2013-07-20 15:56:00,85.5,64.2,29.84,SSW,205,0.0,9.0,49,0.00,,SCT060,0.00,VWS V14.01,2013-07-20 20:56:00,
2013-07-20 16:01:00,86.5,64.5,29.85,WSW,246,4.0,4.0,48,0.00,,SCT060,0.00,VWS V14.01,2013-07-20 21:01:00,
2013-07-20 16:06:00,86.4,63.2,29.84,West,280,2.0,5.0,46,0.00,,SCT060,0.00,VWS V14.01,2013-07-20 21:06:00,
2013-07-20 16:11:00,86.3,63.7,29.84,West,268,2.0,6.0,47,0.00,,SCT060,0.00,VWS V14.01,2013-07-20 21:11:00,
2013-07-20 16:16:00,86.3,63.7,29.84,WSW,255,0.0,6.0,47,0.00,,SCT060,0.00,VWS V14.01,2013-07-20 21:16:00,
2013-07-20 16:22:00,86.2,64.2,29.84,West,265,1.0,6.0,48,0.00,,SCT060,0.00,VWS V14.01,2013-07-20 21:22:00,
2013-07-20 16:27:00,86.2,63.0,29.84,West,267,2.0,6.0,46,0.00,,SCT060,0.00,VWS V14.01,2013-07-20 21:27:00,
2013-07-20 16:32:00,86.2,64.2,29.84,WSW,242,2.0,6.0,48,0.00,,SCT060,0.00,VWS V14.01,2013-07-20 21:32:00,
2013-07-20 16:37:00,85.7,64.9,29.84,WSW,253,4.0,6.0,50,0.00,,SCT060,0.00,VWS V14.01,2013-07-20 21:37:00,
2013-07-20 16:42:00,84.9,64.8,29.84,West,263,5.0,6.0,51,0.00,,SCT060,0.00,VWS V14.01,2013-07-20 21:42:00,
2013-07-20 16:48:00,85.5,65.3,29.83,SW,235,3.0,7.0,51,0.00,,SCT060,0.00,VWS V14.01,2013-07-20 21:48:00,
2013-07-20 16:53:00,85.9,65.1,29.83,SW,231,3.0,7.0,50,0.00,,SCT060,0.00,VWS V14.01,2013-07-20 21:53:00,
2013-07-20 16:58:00,85.8,64.4,29.83,SW,219,3.0,7.0,49,0.00,,SCT060,0.00,VWS V14.01,2013-07-20 21:58:00,
2013-07-20 17:03:00,85.9,65.1,29.83,WSW,257,2.0,6.0,50,0.00,,CLR,0.00,VWS V14.01,2013-07-20 22:03:00,
2013-07-20 17:08:00,85.7,65.5,29.83,SW,225,1.0,6.0,51,0.00,,CLR,0.00,VWS V14.01,2013-07-20 22:08:00,
2013-07-20 17:13:00,85.6,65.4,29.83,South,191,1.0,6.0,51,0.00,,CLR,0.00,VWS V14.01,2013-07-20 22:13:00,
2013-07-20 17:18:00,85.4,65.8,29.83,West,259,4.0,6.0,52,0.00,,CLR,0.00,VWS V14.01,2013-07-20 22:18:00,
2013-07-20 17:23:00,85.5,64.2,29.82,West,263,3.0,6.0,49,0.00,,CLR,0.00,VWS V14.01,2013-07-20 22:23:00,
2013-07-20 17:28:00,85.5,66.4,29.82,West,271,3.0,6.0,53,0.00,,CLR,0.00,VWS V14.01,2013-07-20 22:28:00,
2013-07-20 17:33:00,85.8,63.9,29.82,West,271,0.0,6.0,48,0.00,,CLR,0.00,VWS V14.01,2013-07-20 22:33:00,
2013-07-20 17:39:00,85.8,63.9,29.82,SW,221,0.0,6.0,48,0.00,,CLR,0.00,VWS V14.01,2013-07-20 22:39:00,
2013-07-20 17:44:00,85.5,65.3,29.82,West,267,3.0,6.0,51,0.00,,CLR,0.00,VWS V14.01,2013-07-20 22:44:00,
2013-07-20 17:49:00,85.2,64.5,29.82,SSW,192,4.0,6.0,50,0.00,,CLR,0.00,VWS V14.01,2013-07-20 22:49:00,
2013-07-20 17:54:00,85.3,64.6,29.82,West,267,3.0,6.0,50,0.00,,CLR,0.00,VWS V14.01,2013-07-20 22:54:00,
2013-07-20 17:59:00,85.1,63.8,29.82,West,261,3.0,6.0,49,0.00,,CLR,0.00,VWS V14.01,2013-07-20 22:59:00,
2013-07-20 18:04:00,85.3,64.0,29.82,WSW,252,1.0,5.0,49,0.00,,SCT080,0.00,VWS V14.01,2013-07-20 23:04:00,
2013-07-20 18:09:00,85.5,64.8,29.82,WSW,250,0.0,5.0,50,0.00,,SCT080,0.00,VWS V14.01,2013-07-20 23:09:00,
2013-07-20 18:14:00,85.2,64.5,29.81,West,267,3.0,5.0,50,0.00,,SCT080,0.00,VWS V14.01,2013-07-20 23:14:00,
2013-07-20 18:19:00,84.8,65.8,29.81,SW,230,2.0,5.0,53,0.00,,SCT080,0.00,VWS V14.01,2013-07-20 23:19:00,
2013-07-20 18:24:00,84.7,65.7,29.81,WSW,248,1.0,6.0,53,0.00,,SCT080,0.00,VWS V14.01,2013-07-20 23:24:00,
2013-07-20 18:29:00,83.9,65.5,29.81,WSW,251,1.0,6.0,54,0.00,,SCT080,0.00,VWS V14.01,2013-07-20 23:29:00,
2013-07-20 18:34:00,83.3,65.5,29.81,WSW,251,1.0,6.0,55,0.00,,SCT080,0.00,VWS V14.01,2013-07-20 23:34:00,
2013-07-20 18:39:00,83.7,65.8,29.81,WSW,251,1.0,6.0,55,0.00,,SCT080,0.00,VWS V14.01,2013-07-20 23:39:00,
2013-07-20 18:44:00,84.4,67.0,29.81,WSW,251,0.0,6.0,56,0.00,,SCT080,0.00,VWS V14.01,2013-07-20 23:44:00,
2013-07-20 18:49:00,84.8,65.8,29.81,West,261,2.0,6.0,53,0.00,,SCT080,0.00,VWS V14.01,2013-07-20 23:49:00,
2013-07-20 18:54:00,85.1,66.6,29.81,West,271,0.0,6.0,54,0.00,,SCT080,0.00,VWS V14.01,2013-07-20 23:54:00,
2013-07-20 18:59:00,85.2,67.2,29.82,West,270,1.0,6.0,55,0.00,,SCT080,0.00,VWS V14.01,2013-07-20 23:59:00,
2013-07-20 19:05:00,84.8,65.8,29.82,West,263,2.0,5.0,53,0.00,,CLR,0.00,VWS V14.01,2013-07-21 00:05:00,
2013-07-20 19:10:00,84.5,66.1,29.82,West,272,0.0,5.0,54,0.00,,CLR,0.00,VWS V14.01,2013-07-21 00:10:00,
2013-07-20 19:15:00,84.4,64.9,29.82,West,272,0.0,5.0,52,0.00,,CLR,0.00,VWS V14.01,2013-07-21 00:15:00,
2013-07-20 19:20:00,84.2,64.7,29.82,West,270,0.0,5.0,52,0.00,,CLR,0.00,VWS V14.01,2013-07-21 00:20:00,
2013-07-20 19:25:00,84.0,65.1,29.82,West,270,0.0,5.0,53,0.00,,CLR,0.00,VWS V14.01,2013-07-21 00:25:00,
2013-07-20 19:30:00,83.9,64.9,29.82,West,275,0.0,5.0,53,0.00,,CLR,0.00,VWS V14.01,2013-07-21 00:30:00,
2013-07-20 19:35:00,83.9,64.9,29.82,West,275,0.0,5.0,53,0.00,,CLR,0.00,VWS V14.01,2013-07-21 00:35:00,
2013-07-20 19:40:00,82.3,68.0,29.82,West,275,0.0,5.0,62,0.00,,CLR,0.00,VWS V14.01,2013-07-21 00:40:00,
2013-07-20 19:45:00,81.2,67.4,29.82,West,275,0.0,5.0,63,0.00,,CLR,0.00,VWS V14.01,2013-07-21 00:45:00,
2013-07-20 19:51:00,80.5,66.8,29.83,West,275,0.0,5.0,63,0.00,,CLR,0.00,VWS V14.01,2013-07-21 00:51:00,
2013-07-20 19:56:00,80.1,67.3,29.83,West,275,0.0,5.0,65,0.00,,CLR,0.00,VWS V14.01,2013-07-21 00:56:00,
2013-07-20 20:01:00,79.2,69.0,29.83,West,275,0.0,0.0,71,0.00,,FEW060,0.00,VWS V14.01,2013-07-21 01:01:00,
2013-07-20 20:06:00,79.1,68.5,29.83,West,275,0.0,0.0,70,0.00,,FEW060,0.00,VWS V14.01,2013-07-21 01:06:00,
2013-07-20 20:11:00,78.7,69.7,29.83,West,275,0.0,0.0,74,0.00,,FEW060,0.00,VWS V14.01,2013-07-21 01:11:00,
2013-07-20 20:16:00,78.1,68.3,29.83,West,275,0.0,0.0,72,0.00,,FEW060,0.00,VWS V14.01,2013-07-21 01:16:00,
2013-07-20 20:21:00,78.0,67.4,29.83,ESE,104,0.0,2.0,70,0.00,,FEW060,0.00,VWS V14.01,2013-07-21 01:21:00,
2013-07-20 20:26:00,78.1,67.9,29.83,ESE,104,0.0,2.0,71,0.00,,FEW060,0.00,VWS V14.01,2013-07-21 01:26:00,
2013-07-20 20:32:00,77.7,68.0,29.83,ESE,104,0.0,2.0,72,0.00,,FEW060,0.00,VWS V14.01,2013-07-21 01:32:00,
2013-07-20 20:37:00,77.5,68.2,29.83,ESE,105,0.0,2.0,73,0.00,,FEW060,0.00,VWS V14.01,2013-07-21 01:37:00,
2013-07-20 20:42:00,76.8,68.7,29.83,ESE,105,0.0,2.0,76,0.00,,FEW060,0.00,VWS V14.01,2013-07-21 01:42:00,
2013-07-20 20:47:00,76.5,68.8,29.83,ESE,105,0.0,2.0,77,0.00,,FEW060,0.00,VWS V14.01,2013-07-21 01:47:00,
2013-07-20 20:52:00,76.5,69.1,29.84,ESE,119,0.0,2.0,78,0.00,,FEW060,0.00,VWS V14.01,2013-07-21 01:52:00,
2013-07-20 20:58:00,76.6,68.9,29.84,ESE,120,0.0,2.0,77,0.00,,FEW060,0.00,VWS V14.01,2013-07-21 01:58:00,
2013-07-20 21:03:00,76.8,68.7,29.84,ESE,116,0.0,1.0,76,0.00,,CLR,0.00,VWS V14.01,2013-07-21 02:03:00,
2013-07-20 21:08:00,76.8,68.7,29.84,East,96,0.0,2.0,76,0.00,,CLR,0.00,VWS V14.01,2013-07-21 02:08:00,
2013-07-20 21:13:00,76.8,68.7,29.84,East,95,0.0,2.0,76,0.00,,CLR,0.00,VWS V14.01,2013-07-21 02:13:00,
2013-07-20 21:18:00,76.7,68.9,29.85,SE,133,0.0,2.0,77,0.00,,CLR,0.00,VWS V14.01,2013-07-21 02:18:00,
2013-07-20 21:23:00,76.7,68.9,29.84,SE,133,0.0,2.0,77,0.00,,CLR,0.00,VWS V14.01,2013-07-21 02:23:00,
2013-07-20 21:28:00,76.5,69.1,29.85,SE,130,0.0,2.0,78,0.00,,CLR,0.00,VWS V14.01,2013-07-21 02:28:00,
2013-07-20 21:33:00,76.2,68.8,29.85,SE,130,0.0,2.0,78,0.00,,CLR,0.00,VWS V14.01,2013-07-21 02:33:00,
2013-07-20 21:38:00,75.7,68.7,29.85,SE,130,0.0,2.0,79,0.00,,CLR,0.00,VWS V14.01,2013-07-21 02:38:00,
2013-07-20 21:43:00,75.5,68.5,29.85,SE,130,0.0,2.0,79,0.00,,CLR,0.00,VWS V14.01,2013-07-21 02:43:00,
2013-07-20 21:49:00,75.3,68.7,29.85,SE,130,0.0,2.0,80,0.00,,CLR,0.00,VWS V14.01,2013-07-21 02:49:00,
2013-07-20 21:54:00,75.1,68.5,29.85,SE,130,0.0,2.0,80,0.00,,CLR,0.00,VWS V14.01,2013-07-21 02:54:00,
2013-07-20 21:59:00,74.9,68.7,29.85,SE,129,0.0,2.0,81,0.00,,CLR,0.00,VWS V14.01,2013-07-21 02:59:00,
2013-07-20 22:04:00,74.7,68.5,29.85,SE,129,0.0,0.0,81,0.00,,FEW065,0.00,VWS V14.01,2013-07-21 03:04:00,
2013-07-20 22:09:00,74.6,68.8,29.86,SE,129,0.0,0.0,82,0.00,,FEW065,0.00,VWS V14.01,2013-07-21 03:09:00,
2013-07-20 22:14:00,74.5,68.7,29.86,SE,140,0.0,2.0,82,0.00,,FEW065,0.00,VWS V14.01,2013-07-21 03:14:00,
2013-07-20 22:20:00,74.3,68.8,29.86,SE,140,0.0,2.0,83,0.00,,FEW065,0.00,VWS V14.01,2013-07-21 03:20:00,
2013-07-20 22:25:00,74.2,68.4,29.86,SE,140,0.0,2.0,82,0.00,,FEW065,0.00,VWS V14.01,2013-07-21 03:25:00,
2013-07-20 22:30:00,73.9,68.4,29.86,SE,141,0.0,2.0,83,0.00,,FEW065,0.00,VWS V14.01,2013-07-21 03:30:00,
2013-07-20 22:35:00,73.7,68.2,29.86,SE,128,0.0,3.0,83,0.00,,FEW065,0.00,VWS V14.01,2013-07-21 03:35:00,
2013-07-20 22:41:00,73.7,68.2,29.86,SSE,149,0.0,3.0,83,0.00,,FEW065,0.00,VWS V14.01,2013-07-21 03:41:00,
2013-07-20 22:46:00,73.7,68.2,29.87,ENE,65,0.0,3.0,83,0.00,,FEW065,0.00,VWS V14.01,2013-07-21 03:46:00,
2013-07-20 22:52:00,73.7,68.2,29.87,South,182,0.0,3.0,83,0.00,,FEW065,0.00,VWS V14.01,2013-07-21 03:52:00,
2013-07-20 22:57:00,73.5,68.4,29.87,South,182,0.0,3.0,84,0.00,,FEW065,0.00,VWS V14.01,2013-07-21 03:57:00,
2013-07-20 23:01:00,73.4,68.3,29.87,South,182,0.0,0.0,84,0.00,,FEW055,0.00,VWS V14.01,2013-07-21 04:01:00,
2013-07-20 23:06:00,73.2,68.4,29.87,South,182,0.0,1.0,85,0.00,,FEW055,0.00,VWS V14.01,2013-07-21 04:06:00,
2013-07-20 23:12:00,73.0,68.2,29.87,South,182,0.0,1.0,85,0.00,,FEW055,0.00,VWS V14.01,2013-07-21 04:12:00,
2013-07-20 23:17:00,72.7,68.3,29.86,SE,128,0.0,2.0,86,0.00,,FEW055,0.00,VWS V14.01,2013-07-21 04:17:00,
2013-07-20 23:22:00,72.6,68.2,29.86,SE,134,1.0,2.0,86,0.00,,FEW055,0.00,VWS V14.01,2013-07-21 04:22:00,
2013-07-20 23:27:00,72.8,68.4,29.86,East,101,0.0,2.0,86,0.00,,FEW055,0.00,VWS V14.01,2013-07-21 04:27:00,
2013-07-20 23:32:00,72.8,68.0,29.86,East,101,0.0,2.0,85,0.00,,FEW055,0.00,VWS V14.01,2013-07-21 04:32:00,
2013-07-20 23:37:00,72.7,67.9,29.86,ESE,103,0.0,2.0,85,0.00,,FEW055,0.00,VWS V14.01,2013-07-21 04:37:00,
2013-07-20 23:42:00,72.5,67.7,29.86,South,177,0.0,2.0,85,0.00,,FEW055,0.00,VWS V14.01,2013-07-21 04:42:00,
2013-07-20 23:47:00,72.4,67.6,29.86,SSE,159,0.0,2.0,85,0.00,,FEW055,0.00,VWS V14.01,2013-07-21 04:47:00,
2013-07-20 23:52:00,71.9,67.2,29.86,SSE,159,0.0,2.0,85,0.00,,FEW055,0.00,VWS V14.01,2013-07-21 04:52:00,
2013-07-20 23:57:00,71.1,66.7,29.86,SSE,159,0.0,2.0,86,0.00,,FEW055,0.00,VWS V14.01,2013-07-21 04:57:00,